Skip Page Navigation
NASA JPL Caltech
NASA Logo - Jet Propulsion Laboratory + View the NASA Portal
+ Near-Earth Object (NEO) Program
Search JPL
JPL Home Earth Solar System Stars & Galaxies Technology
JPL Solar System Dynamics
BODIES ORBITS EPHEMERIDES TOOLS PHYSICAL DATA DISCOVERY FAQ SITE MAP
JPL Small-Body Database Browser
Search: [ help ]  
9738 (1987 DF6)
Classification: Main-belt Asteroid          SPK-ID: 2009738
Ephemeris | Orbit Diagram | Orbital Elements | Physical Parameters | Discovery Circumstances ]

[ show orbit diagram ]
Orbital Elements at Epoch 2456800.5 (2014-May-23.0) TDB
Reference: JPL 8 (heliocentric ecliptic J2000)
 Element Value Uncertainty (1-sigma)   Units 
e .121730068496113 5.6288e-08  
a 2.667154744248814 2.494e-08 AU
q 2.342481814541673 1.481e-07 AU
i 12.52007678602924 8.3416e-06 deg
node 329.9567634989148 2.7642e-05 deg
peri 250.1871015363935 4.6303e-05 deg
M 39.77283416832459 3.6379e-05 deg
tp 2456624.725939304367
(2013-Nov-28.22593930)
0.00016132 JED
period 1591.002079022655
4.36
2.2315e-05
6.11e-08
d
yr
n .2262724887331048 3.1737e-09 deg/d
Q 2.991827673955955 2.7976e-08 AU
  Orbit Determination Parameters
   # obs. used (total)      957  
   data-arc span      12349 days (33.81 yr)  
   first obs. used      1980-09-13  
   last obs. used      2014-07-06  
   planetary ephem.      DE431  
   SB-pert. ephem.      SB431-BIG16  
   condition code      0  
   fit RMS      .48874  
   data source      ORB  
   producer      Otto Matic  
   solution date      2014-Jul-14 12:22:28  

Additional Information
 Earth MOID = 1.37155 AU 
 T_jup = 3.338 
[ show covariance matrix ]

Ephemeris | Orbit Diagram | Orbital Elements | Physical Parameters | Discovery Circumstances ]

Physical Parameter Table
Parameter Symbol Value Units Sigma Reference Notes
absolute magnitude H 12.9 mag n/a MPO266010  

9738 (1987 DF6)          Discovered 1987-Feb-23 by Debehogne, H. at La Silla (809)
Reference: 19981208/Numbers.arcLast Updated: 2004-04-19

Alternate Designations
 1987 DF6 = 1980 RR7 
Ephemeris | Orbit Diagram | Orbital Elements | Physical Parameters | Discovery Circumstances ]
ABOUT SSD CREDITS/AWARDS PRIVACY/COPYRIGHT GLOSSARY LINKS
FirstGov 2014-Jul-22 23:37 UT
(server date/time)  
NASA Home Page
Site Manager:   Donald K. Yeomans
Webmaster  Alan B. Chamberlin